Fredericksburg, TX

10:38 AM CST on January 20, 2017 (GMT -0600)
Fredericksburg

Weather History for KT82 - January, 2014

Change the Weather History Date:

Thursday, January 2, 2014

  Actual Average (KSAT) Record (KSAT)
Temperature  
Mean Temperature 37 °F -  
Max Temperature 48 °F 56 °F 86 °F (2006)
Min Temperature 26 °F 39 °F 15 °F (1979)
Degree Days  
Heating Degree Days 28    
Moisture  
Dew Point 26 °F    
Average Humidity 64    
Maximum Humidity 86    
Minimum Humidity 38    
Precipitation  
Precipitation 0.00 in - - ()
Sea Level Pressure  
Sea Level Pressure 30.36 in    
Wind  
Wind Speed 11 mph (North)    
Max Wind Speed 17 mph    
Max Gust Speed 28 mph    
Visibility 10 miles    
Events      
Averages and records for this station are not official NWS values.
T = Trace of Precipitation, MM = Missing Value Source: NWS Daily Summary

Daily Weather History Graph

Daily Weather History Graph

Search for Another Location

Airport or City:

Trip Planner

Search our weather history database for the weather conditions in past years. The results will help you decide how hot, cold, wet, or windy it might be!

Date:

Astronomy

Jan. 02, 2014 Rise Set
Actual Time 7:32 AM CST 5:47 PM CST
Civil Twilight 7:06 AM CST 6:13 PM CST
Nautical Twilight 6:36 AM CST 6:43 PM CST
Astronomical Twilight 6:07 AM CST 7:12 PM CST
Moon 8:22 AM CST (1/2) 7:36 PM CST (1/2)
Length of Visible Light 11h 07m
Length of Day
10h 14m
Waxing Crescent, 3% of the Moon is Illuminated
Jan 2
Waxing Crescent
Jan 7
First Quarter
Jan 15
Full
Jan 23
Last Quarter
Jan 30
New

Hourly Weather History & Observations

Time (CST) Temp. Windchill Dew Point Humidity Pressure Visibility Wind Dir Wind Speed Gust Speed Precip Events Conditions
12:15 AM 48.6 °F - 42.6 °F 80% 30.13 in 10.0 mi North 16.1 mph 19.6 mph N/A   Clear
12:35 AM 48.4 °F - 38.5 °F 69% 30.16 in 10.0 mi North 13.8 mph 21.9 mph N/A   Clear
12:55 AM 47.3 °F - 34.5 °F 61% 30.17 in 10.0 mi North 12.7 mph 19.6 mph N/A   Clear
1:15 AM 46.8 °F - 32.7 °F 58% 30.19 in 10.0 mi North 10.4 mph 25.3 mph N/A   Clear
1:35 AM 45.5 °F 39.9 °F 32.4 °F 60% 30.21 in 10.0 mi North 11.5 mph - N/A   Clear
1:55 AM 43.3 °F 36.1 °F 32.2 °F 65% 30.22 in 10.0 mi North 15.0 mph 20.7 mph N/A   Clear
2:15 AM 42.1 °F 35.2 °F 31.6 °F 67% 30.24 in 10.0 mi North 12.7 mph 17.3 mph N/A   Clear
2:35 AM 40.5 °F 31.8 °F 30.6 °F 68% 30.24 in 10.0 mi North 17.3 mph 23.0 mph N/A   Clear
2:55 AM 39.6 °F 32.1 °F 29.8 °F 68% 30.26 in 10.0 mi North 12.7 mph 21.9 mph N/A   Clear
3:15 AM 38.1 °F 31.7 °F 29.8 °F 72% 30.27 in 10.0 mi North 9.2 mph - N/A   Clear
3:35 AM 36.9 °F 27.1 °F 27.9 °F 70% 30.28 in 10.0 mi North 17.3 mph 21.9 mph N/A   Clear
3:55 AM 36.1 °F 26.9 °F 27.3 °F 70% 30.28 in 10.0 mi North 15.0 mph 23.0 mph N/A   Clear
4:15 AM 35.6 °F 27.1 °F 26.6 °F 70% 30.29 in 10.0 mi North 12.7 mph 27.6 mph N/A   Clear
4:35 AM 34.7 °F 25.9 °F 26.6 °F 72% 30.30 in 10.0 mi North 12.7 mph 24.2 mph N/A   Clear
4:55 AM 33.8 °F 25.3 °F 26.2 °F 74% 30.31 in 10.0 mi North 11.5 mph 18.4 mph N/A   Clear
5:15 AM 33.3 °F 26.4 °F 25.7 °F 74% 30.31 in 10.0 mi North 8.1 mph 16.1 mph N/A   Clear
5:35 AM 32.4 °F 24.0 °F 25.7 °F 76% 30.32 in 10.0 mi North 10.4 mph - N/A   Clear
5:55 AM 32.0 °F 21.2 °F 25.2 °F 76% 30.33 in 10.0 mi North 16.1 mph 20.7 mph N/A   Clear
6:15 AM 32.0 °F 23.6 °F 25.2 °F 76% 30.33 in 10.0 mi North 10.4 mph 20.7 mph N/A   Clear
6:35 AM 31.5 °F 24.2 °F 25.0 °F 77% 30.34 in 10.0 mi North 8.1 mph 17.3 mph N/A   Clear
6:55 AM 30.9 °F 22.2 °F 24.6 °F 77% 30.34 in 10.0 mi North 10.4 mph 17.3 mph N/A   Clear
7:15 AM 30.9 °F 23.5 °F 24.4 °F 77% 30.35 in 10.0 mi North 8.1 mph 16.1 mph N/A   Clear
7:35 AM 30.4 °F 21.5 °F 24.3 °F 78% 30.36 in 10.0 mi North 10.4 mph - N/A   Clear
7:55 AM 29.8 °F 23.0 °F 23.9 °F 79% 30.37 in 10.0 mi North 6.9 mph 10.4 mph N/A   Clear
8:15 AM 30.0 °F 21.1 °F 24.3 °F 79% 30.38 in 10.0 mi NNW 10.4 mph 16.1 mph N/A   Clear
8:35 AM 30.6 °F 22.4 °F 24.1 °F 77% 30.40 in 10.0 mi North 9.2 mph 18.4 mph N/A   Clear
8:55 AM 31.1 °F 21.9 °F 23.9 °F 75% 30.40 in 10.0 mi NNW 11.5 mph 17.3 mph N/A   Clear
9:15 AM 32.0 °F 22.5 °F 23.7 °F 71% 30.41 in 10.0 mi North 12.7 mph - N/A   Clear
9:35 AM 33.3 °F 23.2 °F 24.4 °F 70% 30.42 in 10.0 mi North 15.0 mph 20.7 mph N/A   Clear
9:55 AM 34.3 °F 23.9 °F 24.4 °F 67% 30.42 in 10.0 mi North 17.3 mph 21.9 mph N/A   Clear
10:15 AM 35.6 °F 27.5 °F 25.0 °F 65% 30.42 in 10.0 mi North 11.5 mph - N/A   Clear
10:35 AM 36.5 °F 27.0 °F 25.2 °F 64% 30.42 in 10.0 mi North 16.1 mph - N/A   Clear
10:55 AM 37.4 °F 28.5 °F 25.2 °F 61% 30.42 in 10.0 mi NNW 15.0 mph - N/A   Clear
11:15 AM 38.5 °F 29.9 °F 25.0 °F 58% 30.42 in 10.0 mi North 15.0 mph 20.7 mph N/A   Clear
11:35 AM 39.6 °F 32.1 °F 24.8 °F 56% 30.42 in 10.0 mi North 12.7 mph - N/A   Clear
11:55 AM 40.3 °F 33.4 °F 23.7 °F 52% 30.41 in 10.0 mi North 11.5 mph - N/A   Clear
12:15 PM 41.9 °F 35.0 °F 24.1 °F 49% 30.40 in 10.0 mi NNW 12.7 mph 18.4 mph N/A   Clear
12:35 PM 42.8 °F 35.8 °F 23.4 °F 46% 30.40 in 10.0 mi North 13.8 mph - N/A   Clear
12:55 PM 43.3 °F 36.1 °F 23.4 °F 45% 30.39 in 10.0 mi North 15.0 mph 19.6 mph N/A   Clear
1:15 PM 44.1 °F 38.1 °F 23.4 °F 44% 30.39 in 10.0 mi North 11.5 mph 19.6 mph N/A   Clear
1:35 PM 45.3 °F 39.0 °F 23.5 °F 42% 30.38 in 10.0 mi NNW 13.8 mph - N/A   Clear
1:55 PM 46.0 °F 39.9 °F 23.4 °F 41% 30.37 in 10.0 mi North 13.8 mph 19.6 mph N/A   Clear
2:15 PM 46.4 °F 40.7 °F 24.3 °F 42% 30.37 in 10.0 mi NNW 12.7 mph 18.4 mph N/A   Clear
2:35 PM 46.9 °F - 24.6 °F 42% 30.37 in 10.0 mi North 12.7 mph - N/A   Clear
2:55 PM 47.5 °F - 23.9 °F 40% 30.37 in 10.0 mi North 12.7 mph - N/A   Clear
3:15 PM 47.1 °F - 23.9 °F 40% 30.37 in 10.0 mi NNW 10.4 mph - N/A   Clear
3:35 PM 47.5 °F - 24.1 °F 40% 30.38 in 10.0 mi North 10.4 mph 16.1 mph N/A   Clear
3:55 PM 47.3 °F - 23.5 °F 39% 30.38 in 10.0 mi NNW 11.5 mph - N/A   Clear
4:15 PM 47.3 °F - 23.5 °F 39% 30.38 in 10.0 mi North 10.4 mph 16.1 mph N/A   Clear
4:35 PM 47.3 °F - 22.6 °F 38% 30.38 in 10.0 mi North 10.4 mph - N/A   Clear
4:55 PM 46.8 °F - 23.5 °F 40% 30.39 in 10.0 mi NNE 8.1 mph - N/A   Clear
5:15 PM 45.9 °F 42.9 °F 23.0 °F 41% 30.39 in 10.0 mi NNE 5.8 mph - N/A   Clear
5:35 PM 43.7 °F 40.3 °F 23.9 °F 46% 30.39 in 10.0 mi North 5.8 mph - N/A   Clear
5:55 PM 42.3 °F 39.4 °F 23.2 °F 47% 30.39 in 10.0 mi NNE 4.6 mph - N/A   Clear
6:15 PM 38.1 °F - 24.1 °F 57% 30.39 in 10.0 mi Calm Calm - N/A   Clear
6:35 PM 34.7 °F 31.8 °F 23.9 °F 65% 30.40 in 10.0 mi North 3.5 mph - N/A   Clear
6:55 PM 36.3 °F - 24.8 °F 63% 30.40 in 10.0 mi Calm Calm - N/A   Clear
7:15 PM 34.2 °F - 25.0 °F 69% 30.41 in 10.0 mi Calm Calm - N/A   Clear
7:35 PM 33.4 °F - 25.5 °F 73% 30.41 in 10.0 mi Calm Calm - N/A   Clear
7:55 PM 32.4 °F 29.1 °F 25.5 °F 76% 30.41 in 10.0 mi NW 3.5 mph - N/A   Clear
8:15 PM 31.3 °F 27.9 °F 24.4 °F 76% 30.41 in 10.0 mi NNW 3.5 mph - N/A   Clear
8:35 PM 31.5 °F 26.8 °F 24.8 °F 76% 30.41 in 10.0 mi WNW 4.6 mph - N/A   Clear
8:55 PM 31.1 °F 27.7 °F 25.0 °F 78% 30.42 in 10.0 mi West 3.5 mph - N/A   Clear
9:15 PM 30.6 °F 27.1 °F 24.4 °F 78% 30.42 in 10.0 mi WNW 3.5 mph - N/A   Clear
9:35 PM 29.3 °F - 23.5 °F 79% 30.42 in 10.0 mi Calm Calm - N/A   Clear
9:55 PM 28.2 °F 24.4 °F 23.4 °F 82% 30.42 in 10.0 mi NW 3.5 mph - N/A   Clear
10:15 PM 27.3 °F 23.4 °F 23.2 °F 84% 30.42 in 10.0 mi NNW 3.5 mph - N/A   Clear
10:35 PM 26.2 °F 22.1 °F 22.5 °F 86% 30.41 in 10.0 mi North 3.5 mph - N/A   Clear
10:55 PM 27.9 °F 22.6 °F 23.4 °F 83% 30.42 in 10.0 mi West 4.6 mph - N/A   Clear
11:15 PM 28.4 °F - 23.5 °F 82% 30.42 in 10.0 mi Calm Calm - N/A   Clear
11:35 PM 28.0 °F 24.2 °F 23.5 °F 83% 30.42 in 10.0 mi WSW 3.5 mph - N/A   Clear
11:55 PM 27.9 °F - 23.4 °F 83% 30.41 in 10.0 mi Calm Calm - N/A   Clear